Lid_Strength_Index
2 2 2 2 2 2 2 2 2 2 2 2 2 2 2 2 2 2 2 1 -0 -1 -1 -1 -0 0 4 8 8 0 -1 -1 0 4 7 6 8 8 10 9 9 10 10 8 8 9 10
2 2 2 2 1 2 2 1 2 2 2 2 2 2 2 2 2 2 2 2 1 -0 -1 -1 -1 -0 6 11 4 0 0 2 4 6 7 7 7 7 9 9 10 9 9 9 9 9 10
1 1 1 1 1 1 1 1 1 2 2 2 2 3 3 3 3 2 1 2 2 0 -0 -1 -1 2 6 8 2 1 1 3 5 6 7 6 6 8 9 10 8 9 11 11 10 10 11
1 1 1 1 1 1 1 1 1 1 0 1 2 2 3 3 3 3 2 2 2 2 1 -0 -1 3 8 5 4 3 3 6 6 5 6 6 7 8 9 9 10 12 12 14 10 11 11
0 1 1 1 1 1 1 1 1 0 0 -0 0 1 3 3 3 3 3 3 2 3 2 -0 2 4 8 3 6 5 6 7 7 7 7 6 7 9 10 12 14 13 16 14 13 10 11
1 1 1 1 1 1 1 0 0 -0 -0 -0 -0 1 1 2 3 3 3 3 2 2 3 2 2 7 7 8 6 6 6 6 8 7 8 9 10 13 13 14 17 15 16 15 14 12 12
1 1 2 2 1 1 1 0 0 0 0 -0 -0 -0 0 1 1 1 3 5 7 9 7 9 9 8 7 5 5 7 6 7 7 9 13 11 14 15 13 13 12 13 15 15 14 11 12
1 2 2 1 1 1 0 0 0 0 0 -0 -0 -0 -0 0 0 1 2 5 7 6 10 6 7 7 6 5 8 7 6 9 9 12 11 13 15 12 12 12 12 14 16 16 14 12 13
2 2 2 1 1 0 0 1 1 1 1 0 0 -0 0 0 0 2 4 5 3 5 10 8 7 8 7 6 8 8 7 8 10 12 12 14 13 10 11 12 13 14 15 15 15 14 14
2 2 2 1 1 1 1 1 1 1 1 1 1 0 -0 -0 2 3 6 4 4 4 13 12 9 8 7 6 9 6 6 8 10 12 12 13 10 12 13 13 13 16 13 13 14 16 19
3 2 2 2 1 1 1 1 1 2 2 1 1 1 -0 0 4 5 3 3 3 5 19 10 9 6 7 9 8 8 6 8 11 11 11 13 12 13 13 13 12 14 13 13 14 18 19
3 2 2 2 1 1 1 2 2 2 2 2 2 1 0 2 3 2 2 2 4 13 19 11 9 10 10 9 9 8 8 7 8 10 11 13 12 12 13 13 12 12 14 14 15 17 23
3 2 2 2 2 2 2 2 2 2 2 2 2 1 1 1 6 2 2 4 13 18 10 12 12 10 10 11 10 10 11 12 13 15 15 14 14 13 12 14 12 14 16 21 22 24 22
3 3 2 2 2 2 2 3 3 3 3 3 2 2 2 2 2 2 3 10 17 13 11 8 10 10 12 11 11 11 12 14 12 13 16 17 18 14 12 14 15 16 15 20 23 21 20
3 3 3 3 3 3 3 3 3 3 3 3 3 5 5 4 2 3 7 14 15 12 10 10 10 13 13 11 11 12 13 14 12 12 15 17 16 14 13 13 13 15 17 14 20 21 23
3 3 3 3 3 3 3 3 3 3 3 3 6 7 6 3 3 6 10 13 12 8 10 10 13 11 13 13 13 13 13 12 12 11 11 14 18 15 14 13 14 15 14 18 19 24 23
4 3 3 3 3 3 3 3 2 2 3 3 6 9 6 2 5 9 13 12 10 8 7 10 12 13 12 13 13 14 13 12 11 12 11 13 16 18 16 17 17 17 20 17 16 18 22
4 3 3 3 3 3 3 2 2 1 2 4 6 11 5 4 10 11 12 11 8 10 9 10 11 10 11 11 13 13 14 13 11 12 13 13 17 21 18 18 17 17 16 16 18 22 21
4 4 3 3 3 3 3 2 2 2 1 5 7 8 5 5 13 13 10 10 9 9 10 10 11 11 12 12 14 12 12 12 11 12 13 13 17 22 19 18 18 20 19 19 18 18 23
4 4 4 3 3 3 3 3 3 2 2 3 8 10 8 7 8 12 12 11 11 8 9 8 10 10 13 13 12 14 14 12 11 11 9 11 16 18 19 18 17 20 17 17 16 22 20
4 4 4 3 3 3 3 3 3 3 2 3 7 10 8 12 10 10 11 12 12 12 9 9 10 11 12 15 14 14 13 12 11 10 12 13 19 17 18 17 17 18 18 16 16 15 17
4 4 4 4 3 3 3 3 3 3 2 5 8 9 6 9 8 10 10 12 12 11 11 11 11 11 11 13 12 14 13 13 13 12 13 14 17 18 21 18 19 19 19 17 16 19 19
5 4 4 4 4 4 3 3 3 3 4 8 7 6 7 9 10 10 10 11 10 9 9 9 10 11 12 11 10 11 10 11 13 13 14 15 16 17 19 19 20 21 23 17 17 17 14
5 4 4 4 4 4 3 3 3 3 4 9 9 9 9 12 10 10 9 9 9 10 11 10 9 11 11 10 11 11 12 12 13 14 14 16 16 16 19 19 21 19 22 18 16 16 14
5 5 4 4 4 4 4 4 3 3 3 9 10 10 11 12 12 12 12 12 11 10 12 12 13 12 11 12 14 15 16 16 15 15 16 15 15 17 18 19 17 17 20 20 17 19 20
5 5 4 4 4 4 4 4 4 4 4 9 10 10 11 12 15 12 13 13 14 15 13 13 13 12 13 14 14 18 18 17 20 18 16 16 16 16 19 20 23 20 18 16 18 24 19
5 5 4 4 4 4 4 4 4 4 4 8 10 9 11 14 13 13 15 15 13 14 15 14 14 13 13 15 16 17 19 17 20 20 21 19 18 19 19 20 20 18 17 16 24 21 18
5 5 5 5 5 5 4 4 4 4 4 8 10 9 12 16 12 12 12 14 14 14 17 15 14 14 15 16 16 16 18 18 20 18 18 19 20 21 19 20 22 18 17 19 18 17 16
5 6 5 5 5 5 5 4 4 5 5 7 12 9 9 11 12 9 9 9 10 11 13 14 15 15 14 16 16 16 17 20 20 20 16 18 17 18 17 18 17 17 17 16 15 16 15